Change the Weather History Date:

Thursday, September 19, 2013

  Actual Average (LGEL) Record (LGEL)
Temperature  
Mean Temperature 72 °F -  
Max Temperature 84 °F 75 °F 91 °F (2005)
Min Temperature 60 °F 60 °F 59 °F (1998)
Cooling Degree Days 7    
Growing Degree Days 22 (Base 50)    
Moisture  
Dew Point 51 °F    
Average Humidity 47    
Maximum Humidity 77    
Minimum Humidity 23    
Precipitation  
Precipitation 0.00 in - - ()
Sea Level Pressure  
Sea Level Pressure 29.70 in    
Wind  
Wind Speed 3 mph ()    
Max Wind Speed 15 mph    
Max Gust Speed -    
Visibility 6.2 miles    
Events      
Averages and records for this station are not official NWS values.
T = Trace of Precipitation, MM = Missing Value Source: Averaged Metar Reports

Daily Weather History Graph

Daily Weather History Graph

Search for Another Location

Airport or City:

Trip Planner

Search our weather history database for the weather conditions in past years. The results will help you decide how hot, cold, wet, or windy it might be!

Date:

Astronomy

Sep. 19, 2013 Rise Set
Actual Time 7:10 AM EEST 7:27 PM EEST
Civil Twilight 6:44 AM EEST 7:54 PM EEST
Nautical Twilight 6:13 AM EEST 8:25 PM EEST
Astronomical Twilight 5:41 AM EEST 8:56 PM EEST
Moon 7:15 PM EEST (9/19) 6:58 AM EEST (9/19)
Length of Visible Light 13h 09m
Length of Day
12h 16m
Full, 100% of the Moon is Illuminated
Sep 19
Full
Sep 19
Full
Sep 27
Last Quarter
Oct 5
New
Oct 12
First Quarter

Hourly Weather History & Observations

Time (EEST) Temp. Dew Point Humidity Pressure Visibility Wind Dir Wind Speed Gust Speed Precip Events Conditions
12:50 AM 68.0 °F 53.6 °F 60% 29.68 in 6.2 mi Calm Calm - N/A   Partly Cloudy
1:50 AM 66.2 °F 51.8 °F 60% 29.71 in 6.2 mi Calm Calm - N/A   Partly Cloudy
3:50 AM 62.6 °F 51.8 °F 68% 29.68 in 6.2 mi Calm Calm - N/A   Partly Cloudy
4:50 AM 64.4 °F 53.6 °F 68% 29.68 in 6.2 mi Calm Calm - N/A   Partly Cloudy
5:50 AM 62.6 °F 53.6 °F 72% 29.68 in - Calm Calm - N/A   Clear
6:50 AM 60.8 °F 53.6 °F 77% 29.71 in - Calm Calm - N/A   Clear
7:50 AM 62.6 °F 53.6 °F 72% 29.71 in - Calm Calm - N/A   Clear
8:20 AM 66.2 °F 55.4 °F 68% 29.71 in - Calm Calm - N/A   Clear
9:50 AM 77.0 °F 53.6 °F 44% 29.74 in - Calm Calm - N/A   Clear
10:20 AM 78.8 °F 50.0 °F 36% 29.74 in - WNW 5.8 mph - N/A   Clear
11:50 AM 82.4 °F 48.2 °F 30% 29.71 in - NNW 5.8 mph - N/A   Clear
12:50 PM 82.4 °F 50.0 °F 32% 29.71 in 6.2 mi NNE 6.9 mph - N/A   Partly Cloudy
2:50 PM 84.2 °F 50.0 °F 30% 29.68 in 6.2 mi Calm Calm - N/A   Partly Cloudy
3:50 PM 84.2 °F 50.0 °F 30% 29.65 in 6.2 mi East 9.2 mph - N/A   Partly Cloudy
4:50 PM 84.2 °F 50.0 °F 30% 29.65 in 6.2 mi East 10.4 mph - N/A   Partly Cloudy
5:50 PM 84.2 °F 42.8 °F 23% 29.68 in 6.2 mi WSW 15.0 mph - N/A   Partly Cloudy
6:20 PM 82.4 °F 46.4 °F 28% 29.68 in 6.2 mi WSW 13.8 mph - N/A   Partly Cloudy
7:50 PM 78.8 °F 50.0 °F 36% 29.68 in - SW 12.7 mph - N/A   Clear
8:50 PM 77.0 °F 51.8 °F 41% 29.71 in - SW 8.1 mph - N/A   Clear
9:50 PM 77.0 °F 50.0 °F 39% 29.71 in - SW 12.7 mph - N/A   Clear
10:50 PM 75.2 °F 48.2 °F 38% 29.74 in - Calm Calm - N/A   Clear
11:50 PM 69.8 °F 50.0 °F 49% 29.74 in - Calm Calm - N/A   Clear